Home   Weather   Medellin   Past weeks

Flag for Colombia Past Weather in Medellin, Colombia — Yesterday and Last 2 Weeks

66 °F

Broken clouds.

Feels Like: 66 °F
Forecast: N/A
Wind: 12 mph from Southwest

Location: Rionegro / J. M. Cordova

Current Time: Oct 25, 2016 at 4:12:16 PM

Latest Report: Oct 25, 2016 at 3:00 PM

Visibility: N/A

Pressure: 30.18 "Hg (25.39 "Hg at 1479m altitude)

Humidity: 73%

Dew Point: 57 °F

Location of MedellinLocation

Past Weather in Medellin — Graph


Medellin Temperature Yesterday

Maximum temperature yesterday: 73 °F (at 1:00 PM)
Minimum temperature yesterday: 55 °F (at 3:00 AM)
Average temperature yesterday: 62 °F

High & Low Weather Summary for the Past Weeks

High75 °F (Oct 16, 2:00 PM)100% (Oct 11, 7:00 AM)30.38 "Hg (Oct 11, 7:00 AM)
Low55 °F (Oct 18, 11:00 PM)36% (Oct 20, 3:00 PM)30.14 "Hg (Oct 21, 4:00 PM)
Average63 °F82%30.27 "Hg
* Reported Oct 10 3:00 PM — Oct 25 3:00 PM, Medellin, Weather by CustomWeather, © 2016

Note: Actual official high and low records may vary slightly from our data, if they occured in-between our weather recording intervals... More about our weather records


Medellin Weather History for the Previous 24 Hours

Scroll right to see more
Time TempWeatherWind HumidityBarometerVisibility
3:00 PM
Tue, Oct 25
66 °FBroken clouds.12 mph73%30.18 "HgN/A
2:00 PM66 °FBroken clouds.12 mph73%30.20 "HgN/A
1:00 PM68 °FBroken clouds.7 mph60%30.22 "HgN/A
12:00 PM64 °FBroken clouds.2 mph73%30.27 "HgN/A
11:00 AM63 °FBroken clouds.2 mph77%30.30 "HgN/A
10:00 AM63 °FBroken clouds.7 mph77%30.32 "HgN/A
9:00 AM61 °FBroken clouds.7 mph83%30.31 "HgN/A
8:00 AM57 °FBroken clouds.5 mph94%30.30 "HgN/A
7:00 AM55 °FDrizzle. Low clouds.5 mph100%30.27 "HgN/A
6:00 AM55 °FLight rain. Broken clouds.5 mph100%30.26 "HgN/A
5:00 AM55 °FLight rain. Mostly cloudy.8 mph100%30.24 "Hg5 mi
4:00 AM57 °FLight rain. Mostly cloudy.2 mph94%30.25 "Hg5 mi
3:00 AM57 °FLight rain. Mostly cloudy.2 mph94%30.26 "Hg5 mi
2:00 AM57 °FRain. Mostly cloudy.3 mph94%30.26 "Hg4 mi
1:00 AM57 °FThunderstorms. Passing clouds.3 mph100%30.27 "Hg4 mi
12:00 AM59 °FRain. Passing clouds.6 mph94%30.29 "Hg2 mi
11:00 PM
Mon, Oct 24
59 °FPassing clouds.2 mph94%30.30 "HgN/A
10:00 PM59 °FPartly cloudy.2 mph94%30.30 "Hg5 mi
9:00 PM61 °FLight rain. Passing clouds.5 mph94%30.30 "Hg5 mi
8:00 PM63 °FLight rain. Passing clouds.2 mph88%30.28 "Hg5 mi
7:00 PM63 °FThunderstorms. Passing clouds.6 mph88%30.25 "HgN/A
6:00 PM63 °FScattered showers. Passing clouds.7 mph88%30.21 "HgN/A
5:00 PM64 °FScattered clouds.7 mph83%30.20 "HgN/A
4:00 PM66 °FScattered clouds.7 mph78%30.20 "HgN/A
Weather by CustomWeather, © 2016

See weather overviewHow to use our weather pages